Regional Weather Roundup
Issued by NWS Grand Forks, ND

Home | Current Version | Previous Version | Graphics & Text | Print | Product List | Glossary On
Versions: 1 2 3 4 5 6 7 8 9 10 11 12 13 14 15 16 17 18 19 20 21 22 23 24 25 26 27 28 29 30 31 32 33 34 35 36 37 38 39 40 41 42 43 44 45 46 47 48 49 50
000
ASUS43 KFGF 221331
RWRFGF
PRAIRIE TO PINES  WEATHER ROUNDUP
NATIONAL WEATHER SERVICE EASTERN NORTH DAKOTA/GRAND FORKS ND
800 AM CDT WED OCT 22 2014

 **SATELLITE DATA USED TO AUGMENT SKY COVER AT AUTOMATED STATIONS**
 *****  WEATHER ACROSS EASTERN NORTH DAKOTA  *****

CITY           SKY/WX    TMP DP  RH WIND       PRES   REMARKS
GRAND FORKS    MOCLDY    54  42  64 S21G30    29.79F
GRAND FRKS AFB PTCLDY    54  43  66 S18G30    29.79S
GRAND FRKS NWS   N/A     52 N/A N/A S15         N/A
DEVILS LAKE    PTCLDY    57  39  51 S17G24    29.72S
FARGO          PTCLDY    54  41  61 SE25G40   29.85F
WAHPETON ARPT  SUNNY     50  37  62 SE23G29   29.91F
$$

 ***** WEATHER ACROSS CENTRAL AND WESTERN NORTH DAKOTA  *****

CITY           SKY/WX    TMP DP  RH WIND       PRES   REMARKS
BISMARCK       CLOUDY    57  47  69 NW17G24   29.78R
MINOT          PTCLDY    53  45  74 SW20G25   29.71R
JAMESTOWN      PTCLDY    54  40  59 S20G25    29.76F
MINOT AFB      CLEAR     52  47  84 W18G25    29.70R
GARRISON         N/A     52  46  80 W16G25    29.76R
WILLISTON      PTCLDY    48  41  76 SW10      29.80R
DICKINSON      PTCLDY    48  43  82 W15       29.83R
HETTINGER      CLOUDY    48  42  80 W16       29.88R
$$

 *****  OTHER AIRPORT OBSERVATIONS IN OUR AREA  *****

CITY           SKY/WX    TMP DP  RH WIND       PRES   REMARKS
WALHALLA         N/A     54  41  62 S18G28    29.72R
GRAFTON AIRPOR FAIR      52  41  66 S17G26    29.79R
VALLEY CITY AR FAIR      50  45  81 S15       29.80S
CANDO          PTSUNNY   54  46  76 S14       29.71S
CAVALIER APRT  FAIR      54  41  62 S17G23    29.75S
GWINNER        SUNNY     52  45  76 SE9       29.84F
ROLLA          CLOUDY    50  45  81 S16       29.68S
 ***** THE ABOVE OBSERVATIONS ARE NON NWS ARE NOT QUALITY
       CONTROLLED AND MAY MIS-REPORT RAIN FOR SNOW...
$$

  *****  WEATHER ACROSS NORTHERN MINNESOTA  *****

CITY           SKY/WX    TMP DP  RH WIND       PRES   REMARKS
FLAG ISLAND    MOCLDY    46  43  87 S25G32    29.91S
WARROAD        CLOUDY    50  43  76 SE14G20   29.91S
ROSEAU         CLOUDY    52  43  71 S14G21    29.88S
HALLOCK        MOCLDY    55  41  58 S22G31    29.79S
THF RVR FALLS  PTCLDY    54  39  58 SE17G23   29.86F
BAUDETTE       CLEAR     44  38  79 SE10      29.96S
WASKISH        CLEAR     46  39  76 SE12G26   29.96F
CROOKSTON      MOCLDY    54  43  66 S23       29.84S
STEPHEN NDAWN    N/A     55  43  62 S20         N/A
GREENBUSH NDAW   N/A     52  41  66 SE15        N/A
$$
  *****  WEATHER ACROSS CENTRAL AND WEST MINNESOTA  *****

CITY           SKY/WX    TMP DP  RH WIND       PRES   REMARKS
FOSSTON        PTCLDY    50  39  66 SE15G22   29.90F
BEMIDJI        CLEAR     45  38  78 SE16G22   29.98S
PARK RAPIDS    MOCLDY    45  38  76 SE21      30.01F
ELBOW LAKE     PTSUNNY   49  40  71 SE25G32   29.94S
WADENA         PTCLDY    45  37  76 SE15      30.00F
DETROIT LAKES  CLEAR     48  41  76 SE18G26   29.94F
MOORHEAD       PTCLDY    54  45  71 S24G31    29.88F
FERGUS FALLS   CLEAR     50  37  62 SE18      29.95R
MORRIS MN      CLEAR     46  39  76 SE22      29.96S
STAPLES        PTCLDY    43  37  81 SE10G21   30.05R
$$
  *****  WEATHER ELSEWHERE ACROSS MINNESOTA  *****

CITY           SKY/WX    TMP DP  RH WIND       PRES   REMARKS
DULUTH         CLEAR     39  33  79 SE10      30.19S
INTRNTL FALLS  CLEAR     43  36  76 S9G21     30.04F
ELY            CLEAR     39  36  87 S5        30.18S
CLOQUET        CLEAR     37  34  87 SE3       30.19S
WHEATON        CLEAR     48  39  71 SE24G30   29.92F
BRAINERD       CLEAR     42  37  82 S9        30.11R
HIBBING        CLEAR     37  33  85 SE8       30.15F
ALEXANDRIA     PTCLDY    46  39  76 SE18      30.03S
SAINT CLOUD    CLEAR     43  37  79 SE14      30.13S
MINNEAPOLIS    FAIR      40  36  86 SE13      30.20F
$$

  *****  WEATHER ACROSS SOUTH DAKOTA  *****

CITY           SKY/WX    TMP DP  RH WIND       PRES   REMARKS
SIOUX FALLS    PTCLDY    53  44  71 S17G25    29.99F
BROOKINGS      NOT AVBL
WATERTOWN      CLEAR     52  44  74 S24G35    29.89F
HURON          CLEAR     54  43  66 S16G26    29.87R
SISSETON         N/A     50  43  77 S14       29.88F
ABERDEEN       MOCLDY    55  43  63 S17G26    29.83S
MITCHELL       CLEAR     54  44  69 S17G23    29.90S
PIERRE         CLOUDY    61  46  57 NW23G31   29.82R
MOBRIDGE       CLOUDY    59  48  67 NW20G26   29.78S
RAPID CITY     CLOUDY    52  34  50 N20G30    29.92R
$$

  *****  SOME WEATHER IN NEARBY STATES *****

CITY           SKY/WX    TMP DP  RH WIND       PRES   REMARKS
GLASGOW MT     CLOUDY    49  38  65 W13       29.81R
GREAT FALLS MT CLEAR     41  33  73 SW15      29.93S
CHEYENNE WY    CLOUDY    48  36  63 N3        30.08R
SCOTTSBLUFF NE MOCLDY    48  45  89 NW5       30.00R
OMAHA NE       PTCLDY    54  44  69 SE16      30.11S
DES MOINES IA  PTCLDY    44  39  82 SE9       30.23S
DAVENPORT IA   CLEAR     35  32  88 E6        30.33R
CHICAGO IL     PTCLDY    43  39  86 N6        30.34R
EAU CLAIRE WI  CLEAR     36  33  89 SE5       30.29R
LA CROSSE WI   CLEAR     37  34  89 SE7       30.32R
$$

  *****  SOME NATIONAL WEATHER *****

CITY           SKY/WX    TMP DP  RH WIND       PRES   REMARKS
LA GUARDIA NY  LGT RAIN  55  52  89 NE12      29.93R
RALEIGH NC     MOSUNNY   53  38  56 N13G18    29.99R
ATLANTA GA     SUNNY     49  41  74 NW8       30.10R
NEW ORLEANS LA SUNNY     68  58  70 NE10      30.07R
OKLAHOMA CITY  CLEAR     55  53  93 SE6       30.13R FOG
ALBUQUERQUE NM PTCLDY    53  47  79 E3        30.16R
SALT LAKE CITY CLEAR     39  33  79 SE5       30.16R
LOS ANGELES CA PTCLDY    62  60  93 CALM      29.90R
BOISE ID       CLEAR     45  36  70 SE10      30.07S
SEATTLE WA     RAIN      56  52  86 S14       29.68R FOG
$$

*** WEATHER ACROSS MANITOBA...SASKATCHEWAN AND ONTARIO ***
                ***ONTARIO***

CITY           SKY/WX    TMP DP  RH WIND       PRES   REMARKS
GERALDTON      PTCLDY    34  32  93 S6        30.29S
THUNDER BAY    PTCLDY    27  27 100 VRB2      30.29S
SIOUX LOOKOUT  PTCLDY    41  37  87 S8        30.07
TORONTO        MOSUNNY   39  34  81 N15       30.27R
BIG TROUT LK   CLEAR     41  36  81 S10G17    29.92S
PICKLE LAKE    PTCLDY    37  34  87 S10G18    30.06R
DRYDEN         CLEAR     43  37  81 S20G25    30.02S
KENORA         PTCLDY    45  37  76 S14G20    29.94S
$$
                *** MANITOBA***

CITY           SKY/WX    TMP DP  RH WIND       PRES   REMARKS
BRANDON        PTCLDY    50  43  76 S8        29.63S
DAUPHIN        PTCLDY    39  37  93 W8        29.58R
ISLAND LAKE    MOCLDY    45  39  81 SE9       29.76S
PILOT MOUND      N/A     55  43  62 S22G28      N/A
THE PAS        CLOUDY    43  41  93 NW3       29.57R
THOMPSON       MOCLDY    34  34 100 E5        29.63S
WINNIPEG       MOCLDY    55  41  58 S29G39    29.73F
LYNN LAKE      CLOUDY    39  39 100 NW5       29.63R
CHURCHILL      FOG       37  37 100 E3        29.65  VSB 3/8
GILLAM         MOCLDY    41  37  87 S9G17     29.68R
$$
                ***SASKATCHEWAN***

CITY           SKY/WX    TMP DP  RH WIND       PRES   REMARKS
ESTEVAN        MOCLDY    48  45  87 SW13      29.71
KINDERSLEY     CLOUDY    43  41  93 W6        29.75R
LLOYDMINSTER   PTCLDY    32  30  93 W8        29.74S WCI  25
PRINCE ALBERT  MOCLDY    48  43  81 N2        29.64F
REGINA         MOCLDY    46  45  93 W12       29.65S
YORKTON        CLOUDY    48  45  87 W5        29.58F
N. BATTLEFORD  CLEAR     37  37 100 NW5       29.73S
LA RONGE       MOCLDY    43  43 100 NW6       29.67S
SASKATOON      CLOUDY    50  45  81 NW9       29.68R
SWIFT CURRENT  LGT RAIN  46  46 100 W17       29.74S
$$
NOTE: THESE ARE AUTOMATED STATIONS WITH LIMITED QUALITY CONTROL
      "FAIR" INDICATES FEW OR NO CLOUDS BELOW 12,000 FEET WITH NO
      SIGNIFICANT WEATHER AND/OR OBSTRUCTIONS TO VISIBILITY.
      SKY/WX - SKY CONDITION AND SIGNIFICANT WEATHER.
      TMP - AIR TEMPERATURE.    DP   - DEWPOINT TEMPERATURE.
      RH  - RELATIVE HUMIDITY.  PRES - PRESSURE.
      HX  - HEAT INDEX.         WCI  - WIND CHILL INDEX.
$



USA.gov is the U.S. government's official web portal to all federal, state and local government web resources and services.